星链-30552 (STARLINK-30552 )

导读

STARLINK-30552是美国SpaceX公司星链(Starlink)卫星互联网星座的一员,于2023年10月05日发射升空。星链项目旨在通过低地球轨道卫星星座,为全球提供高速宽带互联网服务,尤其覆盖偏远农村等基础设施薄弱区域。该卫星属于量产型低轨通信卫星,采用霍尔推进器、光学星间链路等技术,设计寿命约5-7年,退役后会受控离轨坠入大气层焚毁。

Basic Information
目录编号:
57999
目录名称:
STARLINK-30552
国际标识:
2023-153J
轨道中心:
EARTH
卫星名称:
星链-30552
卫星全名:
星链-30552 (STARLINK-30552 )
卫星状态:
在轨 (已飞行989 天)
发射日期:
2023-10-05 UTC
国别 :
美国 (US)
星等 :
--
Orbit Information
数据来源 国际轨道数据 AOE轨道数据
星历时间 2026-06-20T11:54:54+0800
8小时前
查看轨道信息
2026-06-19T15:00:00+0800
1天前
查看轨道信息
半长轴 6861.173km 6861.195km
偏心率 0.0002459 0.0002407
轨道倾角 43.004° 43.003°
近地点辐角 287.868° 277.401°
升交点赤经 208.748° 213.670°
平近点角 72.190° 324.605°
近地点 481.348km 481.406km
远地点 484.724km 484.71km
周期 94.266分钟 94.267分钟
每日圈数 15.275847 15.275773
Detailed Information
固有亮度:
5
最大亮度:
0.3
卫星平台:
Starlink v2.0 mini
覆盖范围:
全球
运营商:
太空探索技术公司
运营商所在国:
美国
制造商(研发单位):
太空探索技术公司
制造商所在国:
美国
使用方式:
暂无
Satellite Introduction
星链(Starlink)计划是由太空探索技术公司(SpaceX)提出的一个巨型低轨卫星互联网星座项目,计划在2019年至2024年间在太空搭建由约1.2万颗卫星组成的“星链”网络,其中1584颗将部署在地球上空550千米处的近地轨道,并从2020年开始工作。该卫星仍在工作。
2D Orbit Map
3D Orbit Map
Orbit Altitude Analysis Chart
Orbit Inclination Analysis Chart
Orbit Comprehensive Analysis Chart
View Comprehensive Chart